Location: Appleton
(44.2618°N, 88.4157°W)
Time: 01:21:56
(UTC+00:00)

Tiros 1 despin weight - Pass Details

Date: 03 March 2021
Orbit: 593 x 641 km, 48.2° (Epoch: 10 April)

Event Time Altitude Azimuth Distance (km) Brightness Sun altitude
Exits shadow 10:11:35 82° 14° (NNE) 649 ? -24.8°
Maximum altitude 10:11:36 82° 19° (NNE) 649 ? -24.8°
Drops below altitude 10° 10:16:18 10° 109° (ESE) 2,029 ? -24.0°
Sets 10:18:38 0° 110° (ESE) 2,936 ? -23.6°
